Al-wafra, Kuwait

7:15 AM +03 on March 26, 2017 (GMT +0300)
Khairan | | Change Station

Elev -10 ft 28.67 °N, 48.38 °E | Updated 1 second ago

Clear
Clear
66.4 °F
Feels Like 66.4 °F
N
2.0
Wind Variable Wind from North
Gusts 5.0 mph

Today
High -- | Low -- °F
--% Chance of Precip.
Yesterday
High -- | Low -- °F
Precip. -- in
Pressure 30.01 in
Visibility 2.5 miles
Clouds Clear
Dew Point 60 °F
Humidity 79%
Rainfall 0.00 in
Snow Depth Not available.
5:44 AM 6:02 PM
Waning Crescent, 5% visible
METAR OKBK 260400Z 27005KT 4000 BR SKC 16/14 Q1016 NOSIG
Pressure 30.01 in
Visibility 2.5 miles
Clouds Clear
Dew Point 60 °F
Humidity 79%
Rainfall 0.00 in
Snow Depth Not available.
5:44 AM 6:02 PM
Waning Crescent, 5% visible
METAR OKBK 260400Z 27005KT 4000 BR SKC 16/14 Q1016 NOSIG

Get Severe Weather Alerts

Thanks for signing up!

Be on the lookout for a verification email in your inbox.

You'll start receiving the daily forecast at 8 AM.

×

10-Day Weather Forecast

No radar image for this location.
×

Almanac

Astronomy

Mar. 26, 2017 Rise Set
Actual Time
Civil Twilight
Nautical Twilight
Astronomical Twilight
Moon
Length of Visible Light
Length of Day
Tomorrow will be .
, % of the Moon is Illuminated

Today's Extremes

Country Highs Country Lows

Community

WunderPhotos

Upload Photos

1,962,540 photos uploaded!

WunderBlog® & News

Nearby

Air Quality

  Air Quality AQ Index Pollutant
Not available.

Snow Depth

Station Depth Elevation

Earthquake Activity

City Distance Mag. Time & Date
Minimum magnitude displayed is 2.5.

Earthquake Activity

City Distance Mag. Time & Date
Minimum magnitude displayed is 2.5.

Coastal Water Temperatures

Place Temperature

Stations

Nearby Weather Stations

Station Location Temp. Windchill Dew Point Humidity Wind Precip. Elev Updated Type